Time,TemperatureF,DewpointF,PressureIn,WindDirection,WindDirectionDegrees,WindSpeedMPH,WindSpeedGustMPH,Humidity,HourlyPrecipIn,Conditions,Clouds,dailyrainin,SoftwareType,DateUTC
2013-04-16 22:06:00,54.2,29.8,30.23,North,0,0.0,0.0,39,0.00,,---,0.35,VWS V14.00,2013-04-17 02:06:00,
2013-04-16 22:07:00,54.0,29.6,30.23,North,352,0.0,0.0,39,0.00,,---,0.35,VWS V14.00,2013-04-17 02:07:00,
2013-04-16 22:08:00,54.0,29.6,30.23,North,352,0.0,0.0,39,0.00,,---,0.35,VWS V14.00,2013-04-17 02:08:00,
2013-04-16 22:09:00,54.0,29.6,30.23,North,352,0.0,0.0,39,0.00,,---,0.35,VWS V14.00,2013-04-17 02:09:00,
2013-04-16 22:14:00,53.9,30.1,30.23,North,352,0.0,0.0,40,0.00,,---,0.35,VWS V14.00,2013-04-17 02:14:00,
2013-04-16 22:17:00,53.9,30.1,30.24,North,352,0.0,0.0,40,0.00,,---,0.35,VWS V14.00,2013-04-17 02:17:00,
2013-04-16 22:23:00,53.8,29.4,30.24,North,352,0.0,0.0,39,0.00,,---,0.35,VWS V14.00,2013-04-17 02:23:00,
2013-04-16 22:28:00,53.9,29.5,30.24,North,352,0.0,0.0,39,0.00,,---,0.35,VWS V14.00,2013-04-17 02:28:00,
2013-04-16 22:33:00,53.9,28.9,30.24,North,352,0.0,0.0,38,0.00,,---,0.35,VWS V14.00,2013-04-17 02:33:00,
2013-04-16 22:38:00,53.9,29.5,30.24,North,352,0.0,0.0,39,0.00,,---,0.35,VWS V14.00,2013-04-17 02:38:00,
2013-04-16 22:43:00,53.9,30.1,30.24,North,352,2.0,2.0,40,0.00,,---,0.35,VWS V14.00,2013-04-17 02:43:00,
2013-04-16 22:49:00,53.7,29.4,30.23,NNW,342,0.0,0.0,39,0.00,,---,0.35,VWS V14.00,2013-04-17 02:49:00,
2013-04-16 22:54:00,53.4,29.7,30.24,NNW,342,0.0,0.0,40,0.00,,---,0.35,VWS V14.00,2013-04-17 02:54:00,
2013-04-16 22:59:00,53.0,29.3,30.24,NNW,342,0.0,2.0,40,0.00,,---,0.35,VWS V14.00,2013-04-17 02:59:00,
2013-04-16 23:04:00,52.7,29.7,30.24,NNW,341,0.0,0.0,41,0.00,,---,0.35,VWS V14.00,2013-04-17 03:04:00,
2013-04-16 23:09:00,52.2,29.8,30.25,NNW,341,0.0,0.0,42,0.00,,---,0.35,VWS V14.00,2013-04-17 03:09:00,
2013-04-16 23:15:00,51.9,29.5,30.25,NNW,341,0.0,0.0,42,0.00,,---,0.35,VWS V14.00,2013-04-17 03:15:00,
2013-04-16 23:20:00,51.7,29.9,30.25,NNW,341,0.0,0.0,43,0.00,,---,0.35,VWS V14.00,2013-04-17 03:20:00,
2013-04-16 23:25:00,51.4,30.8,30.25,NNW,341,0.0,0.0,45,0.00,,---,0.35,VWS V14.00,2013-04-17 03:25:00,
2013-04-16 23:30:00,51.2,30.0,30.25,NNW,341,0.0,0.0,44,0.00,,---,0.35,VWS V14.00,2013-04-17 03:30:00,
2013-04-16 23:36:00,51.1,30.0,30.24,NNW,341,0.0,0.0,44,0.00,,---,0.35,VWS V14.00,2013-04-17 03:36:00,
2013-04-16 23:42:00,50.8,30.2,30.25,NNW,341,0.0,0.0,45,0.00,,---,0.35,VWS V14.00,2013-04-17 03:42:00,